Other Public Products
Issued by NWS Charleston, SC

Current Version | Previous Version | Text Only | Print | Product List | Glossary Off
Versions: 1 2 3 4 5 6 7 8 9 10 11 12 13 14 15 16 17 18 19 20 21 22 23 24 25 26 27 28 29 30 31 32 33 34 35 36 37 38 39 40 41 42 43 44 45 46 47 48 49 50

000
FPUS82 KCHS 200027
OPUCHS

TEST...KCHS/KSAV Gateway Observations...TEST
National Weather Service Charleston SC
700 PM EST SUN NOV 19 2017

NOTE: "fair" indicates few or no clouds below 12,000 feet with no
significant weather and/or obstructions to visibility.

SCZ050-WAZ558-NCZ071-TXZ119-213-PAZ071-DCZ001-FLZ074-172-MI076-
NYZ176-178-MAZ016-IL014-TNZ027-NJZ106-GAZ044-MD014-200100-

...Gateway Observations for Charleston International...

CITY           SKY/WX    TMP DP  RH WIND       PRES   REMARKS
Chas Airport   CLEAR     50  38  63 NW5       29.97R
6HR MIN TEMP:  50; 6HR MAX TEMP:  67;

Seattle        LGT RAIN  45  39  79 SW3       29.72F
6HR MIN TEMP:  45; 6HR MAX TEMP:  53; 6HR PCP:  0.02;

Charlotte      CLEAR     46  28  49 NW8       30.01R
6HR MIN TEMP:  45; 6HR MAX TEMP:  59;

Dallas DFW     PTCLDY    55  26  32 CALM      30.22F
6HR MIN TEMP:  55; 6HR MAX TEMP:  63;

Dallas Love    PTCLDY    58  27  30 CALM      30.23F
6HR MIN TEMP:  58; 6HR MAX TEMP:  63;

Philladelphia  MOCLDY    47  25  42 W13       29.79R
6HR MIN TEMP:  47; 6HR MAX TEMP:  54;

Wash National  MOCLDY    46  26  45 NW12      29.89R
6HR MIN TEMP:  46; 6HR MAX TEMP:  52;

Baltimore      MOCLDY    43  25  49 W14G20    29.86R
6HR MIN TEMP:  42; 6HR MAX TEMP:  51;

Miami          PTCLDY    77  62  59 W6        29.93R
6HR MIN TEMP:  77; 6HR MAX TEMP:  83;

Detroit        CLOUDY    32  20  61 W17       29.93S WCI  21
6HR MIN TEMP:  32; 6HR MAX TEMP:  37; 6HR PCP: TRACE;

Newark         MOCLDY    47  25  42 W9G17     29.70R
6HR MIN TEMP:  47; 6HR MAX TEMP:  54;

Laguardia      MOCLDY    47  26  44 NW13      29.69R
6HR MIN TEMP:  46; 6HR MAX TEMP:  51;

J F K          MOCLDY    46  25  43 NW12      29.70R
6HR MIN TEMP:  45; 6HR MAX TEMP:  52;

Boston Logan   PTCLDY    41  26  55 W23G31    29.53R
6HR MIN TEMP:  40; 6HR MAX TEMP:  50;

Ft. Lauderdale PTCLDY    77  62  59 SW5       29.91R
6HR MIN TEMP:  76; 6HR MAX TEMP:  81;

Chicago O`Hare CLEAR     32  18  56 W7        30.06R WCI  26
6HR MIN TEMP:  31; 6HR MAX TEMP:  36;

Chicago Midway CLEAR     33  19  56 SW9       30.07R WCI  25
6HR MIN TEMP:  33; 6HR MAX TEMP:  36;

Houston Bush   CLOUDY    57  34  41 NE6       30.22S
6HR MIN TEMP:  56; 6HR MAX TEMP:  67;

Houston Hobby  CLOUDY    59  32  36 N9        30.21S
6HR MIN TEMP:  58; 6HR MAX TEMP:  65;

Nashville      CLEAR     41  22  46 N5        30.19R
6HR MIN TEMP:  40; 6HR MAX TEMP:  48;

Atlanta        CLEAR     47  31  53 NW13      30.08R
6HR MIN TEMP:  47; 6HR MAX TEMP:  54;


$$

GAZ044-118-TXZ119-213-NCZ071-DCZ001-MDZ014-506-PAZ021-071-NJZ106-
NYZ176-178-MAZ106-OHZ011-021-055-MIZ076-KYZ091-ILZ014-INZ047-
MNZ060-ONZ431-200100-

...Gateway Observations for Savannah International...

CITY           SKY/WX    TMP DP  RH WIND       PRES   REMARKS
Savannah Arpt  CLEAR     55  36  48 NW12      30.00R
6HR MIN TEMP:  54; 6HR MAX TEMP:  66;

Atlanta        CLEAR     47  31  53 NW13      30.08R
6HR MIN TEMP:  47; 6HR MAX TEMP:  54;

Charlotte      CLEAR     46  28  49 NW8       30.01R
6HR MIN TEMP:  45; 6HR MAX TEMP:  59;

Dallas DFW     PTCLDY    55  26  32 CALM      30.22F
6HR MIN TEMP:  55; 6HR MAX TEMP:  63;

Houston Bush   CLOUDY    57  34  41 NE6       30.22S
6HR MIN TEMP:  56; 6HR MAX TEMP:  67;

Wash National  MOCLDY    46  26  45 NW12      29.89R
6HR MIN TEMP:  46; 6HR MAX TEMP:  52;

Wash Dulles    MOCLDY    42  28  57 W8        29.88R
6HR MIN TEMP:  42; 6HR MAX TEMP:  50;

Baltimore      MOCLDY    43  25  49 W14G20    29.86R
6HR MIN TEMP:  42; 6HR MAX TEMP:  51;

Philadelphia   MOCLDY    47  25  42 W13       29.79R
6HR MIN TEMP:  47; 6HR MAX TEMP:  54;

Newark         MOCLDY    47  25  42 W9G17     29.70R
6HR MIN TEMP:  47; 6HR MAX TEMP:  54;

Laguardia      MOCLDY    47  26  44 NW13      29.69R
6HR MIN TEMP:  46; 6HR MAX TEMP:  51;

J F K          MOCLDY    46  25  43 NW12      29.70R
6HR MIN TEMP:  45; 6HR MAX TEMP:  52;

Boston         PTCLDY    41  26  55 W23G31    29.53R
6HR MIN TEMP:  40; 6HR MAX TEMP:  50;

Pittsburg      FLURRIES  35  29  78 W12G24    29.90R WCI  27
6HR MIN TEMP:  34; 6HR MAX TEMP:  40; 6HR PCP:  0.01;

Akron          CLOUDY    33  23  66 W14G23    29.94R WCI  23
6HR MIN TEMP:  33; 6HR MAX TEMP:  39; 6HR PCP:  0.01;

Cleveland      FLURRIES  35  25  66 W17       29.96R WCI  25
6HR MIN TEMP:  33; 6HR MAX TEMP:  39; 6HR PCP:  0.05;

Cincinnati     PTCLDY    32  25  75 W7        30.11R WCI  26
6HR MIN TEMP:  31; 6HR MAX TEMP:  39;

Columbus       CLOUDY    32  24  71 W10       30.08R WCI  24
Detroit        CLOUDY    32  20  61 W17       29.93S WCI  21
6HR MIN TEMP:  32; 6HR MAX TEMP:  37; 6HR PCP: TRACE;

Chicago O`Hare CLEAR     32  18  56 W7        30.06R WCI  26
6HR MIN TEMP:  31; 6HR MAX TEMP:  36;

Minneapolis    PTCLDY    36  24  62 VRB3      29.85F
6HR MIN TEMP:  31; 6HR MAX TEMP:  41;

Indianapolis   PTCLDY    30  23  75 W10       30.13R WCI  21
6HR MIN TEMP:  30; 6HR MAX TEMP:  33;

Toronto Canada PTCLDY    30  19  64 NW16      29.79R WCI  19

$$




USA.gov is the U.S. government's official web portal to all federal, state and local government web resources and services.